CW0811 Weather Reports


time (UTC)temp
C
wind
direction
speed
KPH
gust
KPH
rain 1hr
cm
rain 24hr
cm
rain mn
cm
humidity
%
barometer
mb
20260506214542 14 182 4.8 16.1 0.08 0.36 0.36 92 1005.7
20260506213042 15 191 1.6 9.7 0.13 0.36 0.36 92 1005.7
20260506211542 15 180 1.6 12.9 0.13 0.33 0.33 92 1005.8
20260506210045 15 0 1.6 9.7 0.13 0.30 0.30 92 1005.9
20260506204549 15 182 1.6 16.1 0.10 0.28 0.28 92 1005.9
20260506203042 15 0 1.6 9.7 0.05 0.23 0.23 92 1006.2
20260506201542 15 188 1.6 8.0 0.05 0.20 0.20 91 1006.4
20260506200041 15 0 1.6 8.0 0.03 0.18 0.18 91 1006.2
20260506194546 15 360 4.8 14.5 0.05 0.18 0.18 91 1006.4
20260506193044 15 360 0.0 9.7 0.05 0.18 0.18 91 1006.6
20260506191542 15 360 1.6 12.9 0.05 0.15 0.15 91 1006.8
20260506190041 15 360 3.2 19.3 0.10 0.15 0.15 91 1006.7
20260506184546 15 360 4.8 19.3 0.10 0.13 0.13 90 1006.9
20260506183045 15 360 4.8 14.5 0.10 0.13 0.13 90 1007.3
20260506181541 15 360 6.4 19.3 0.08 0.10 0.10 89 1007.4
20260506180050 15 360 4.8 14.5 0.05 0.05 0.05 89 1007.2
20260506174544 15 360 4.8 17.7 0.03 0.03 0.03 87 1007.4
20260506173051 15 360 4.8 17.7 0.03 0.03 0.03 86 1007.6
20260506171547 16 360 3.2 22.5 0.03 0.03 0.03 84 1008.2
20260506170056 16 360 3.2 16.1 0.00 0.00 0.00 82 1008.5
20260506164541 17 168 1.6 12.9 0.00 0.00 0.00 80 1008.6
20260506163101 17 219 4.8 20.9 0.00 0.00 0.00 77 1008.5
20260506161545 18 140 4.8 17.7 0.00 0.00 0.00 75 1008.2
20260506160045 18 278 8.0 16.1 0.00 0.00 0.00 71 1008.4
20260506154605 18 169 3.2 19.3 0.00 0.00 0.00 72 1008.7
20260506153050 19 177 4.8 19.3 0.00 0.00 0.00 71 1008.8
20260506151548 19 232 4.8 14.5 0.00 0.00 0.00 70 1008.6
20260506150045 18 182 1.6 17.7 0.00 0.00 0.00 71 1008.6
20260506144542 18 170 6.4 24.1 0.00 0.00 0.00 71 1008.6
20260506143056 18 0 3.2 14.5 0.00 0.00 0.00 72 1009.0
20260506141543 18 134 3.2 17.7 0.00 0.00 0.00 74 1008.8
20260506140041 17 181 4.8 16.1 0.00 0.00 0.00 76 1008.9
20260506134545 17 234 4.8 14.5 0.00 0.00 0.00 76 1008.8
20260506133043 17 209 3.2 17.7 0.00 0.00 0.00 77 1008.7
20260506131542 17 283 6.4 16.1 0.00 0.00 0.00 79 1009.0
20260506130040 16 104 4.8 14.5 0.00 0.00 0.00 80 1009.0
20260506124540 16 140 6.4 16.1 0.00 0.00 0.00 81 1009.2
20260506123048 16 219 1.6 17.7 0.00 0.00 0.00 82 1009.6
20260506121545 16 144 4.8 17.7 0.00 0.00 0.00 82 1009.4
20260506120052 15 214 4.8 14.5 0.00 0.00 0.00 82 1009.3
20260506114547 15 151 3.2 11.3 0.00 0.00 0.00 83 1009.4
20260506113040 15 265 6.4 16.1 0.00 0.00 0.00 84 1009.5
20260506111549 14 163 4.8 11.3 0.00 0.00 0.00 85 1009.3
20260506110058 14 199 1.6 9.7 0.00 0.00 0.00 86 1009.6
20260506104543 13 360 3.2 14.5 0.00 0.00 0.00 87 1009.4
20260506103048 13 234 4.8 11.3 0.00 0.00 0.00 87 1009.5
20260506101546 13 138 1.6 14.5 0.00 0.00 0.00 87 1009.4
20260506100048 13 191 1.6 11.3 0.00 0.00 0.00 87 1009.4
20260506094604 13 253 3.2 12.9 0.00 0.00 0.00 86 1009.2
20260506093053 13 205 4.8 17.7 0.00 0.00 0.00 86 1009.3
20260506091546 13 187 3.2 19.3 0.00 0.00 0.00 86 1009.2
20260506090046 13 214 0.0 14.5 0.00 0.00 0.00 85 1009.3
20260506084541 13 229 1.6 12.9 0.00 0.00 0.00 85 1009.4
20260506083041 13 175 3.2 11.3 0.00 0.00 0.00 84 1009.5
20260506081547 14 142 3.2 16.1 0.00 0.00 0.00 84 1009.4
20260506073045 14 180 1.6 12.9 0.00 0.00 0.00 82 1009.3
20260506071540 14 211 3.2 14.5 0.00 0.00 0.00 81 1009.4
20260506061541 15 208 4.8 16.1 0.00 0.00 0.00 78 1009.0
20260506044545 17 232 3.2 20.9 0.00 0.00 0.00 70 1009.6
20260506043046 17 216 4.8 14.5 0.00 0.00 0.00 69 1009.6
20260506041541 17 219 3.2 14.5 0.00 0.00 0.00 68 1009.7
20260506040058 17 207 3.2 14.5 0.00 0.00 0.00 68 1009.7
20260506034543 17 174 3.2 14.5 0.00 0.00 0.00 67 1009.7
20260506033042 17 233 3.2 19.3 0.00 0.00 0.00 66 1009.7
20260506031555 17 223 3.2 17.7 0.00 0.00 0.00 66 1009.7
20260506030043 17 239 4.8 16.1 0.00 0.00 0.00 66 1009.6
20260506024540 17 188 3.2 11.3 0.00 0.00 0.00 66 1009.6
20260506023041 17 183 3.2 16.1 0.00 0.00 0.00 65 1009.6
20260506021542 17 217 4.8 14.5 0.00 0.00 0.00 65 1009.6
20260506020041 17 360 1.6 9.7 0.00 0.00 0.00 65 1009.6
20260506014541 17 360 4.8 14.5 0.00 0.00 0.00 65 1009.6
20260506013044 17 360 3.2 16.1 0.00 0.00 0.00 64 1009.3
20260506011544 18 229 3.2 12.9 0.00 0.00 0.00 62 1009.1
20260506010046 18 208 4.8 12.9 0.00 0.00 0.00 61 1008.9
20260506004541 18 189 4.8 16.1 0.00 0.00 0.00 60 1008.9
20260506003042 18 209 1.6 16.1 0.00 0.00 0.00 60 1008.5
20260506001537 18 171 4.8 17.7 0.00 0.00 0.00 60 1008.0
20260506000046 19 207 8.0 20.9 0.00 0.00 0.00 60 1007.9
20260505234553 19 228 3.2 11.3 0.00 0.00 0.00 59 1007.8
20260505233042 20 165 3.2 19.3 0.00 0.00 0.00 59 1007.7
20260505231552 20 230 4.8 17.7 0.00 0.00 0.00 59 1007.3
20260505230048 20 222 6.4 16.1 0.00 0.00 0.00 58 1007.2
20260505224543 20 204 4.8 29.0 0.00 0.00 0.00 57 1007.0
20260505223054 21 257 6.4 29.0 0.00 0.00 0.00 56 1006.8
20260505221541 21 227 4.8 20.9 0.00 0.00 0.00 55 1006.9
20260505220047 22 154 8.0 24.1 0.00 0.00 0.00 53 1007.0